Flag for Germany Weather past 2 weeks in Emsdetten, North Rhine-Westphalia, Germany

Now
43 °F

Partly sunny.


Feels Like: 38 °F
Forecast: 38 / 43 °F
Wind: 8 mph from West

Location: Muenster / Osnabrueck

Current Time: Jan 27, 2015 at 4:12:34 PM

Latest Report: Jan 27, 2015 at 3:50 PM


Visibility: N/A

Pressure: 30.12 "Hg

Humidity: 81%

Dew point: 37 °F

Location of EmsdettenLocation

Historic Weather in Emsdetten — Graph

°F

Emsdetten temperature yesterday

Maximum temperature yesterday: 43 °F (at 5:50 PM)
Minimum temperature yesterday: 36 °F (at 12:20 AM)
Average temperature yesterday: 39 °F

Past Weeks' High & Low Weather Summary

 TemperatureHumidityPressure
High52 °F (Jan 13, 6:20 AM)100% (Jan 17, 2:50 AM)30.36 "Hg (Jan 17, 2:50 AM)
Low23 °F (Jan 21, 1:50 AM)65% (Jan 21, 1:50 PM)29.39 "Hg (Jan 15, 3:50 PM)
Average37 °F88%29.93 "Hg
* Reported Jan 12 2:20 PM — Jan 27 2:50 PM, Emsdetten, Weather by CustomWeather, © 2014

Note: Actual official high and low records may vary slightly from our data, if they occured in-between our weather recording intervals... More about our weather records

Advertising

Emsdetten weather history for previous 24 hours

 ConditionsComfort  
Time TempWeatherWind HumidityBarometerVisibility
2:50 PM
Jan 27
43 °FBroken clouds.9 mph81%30.12 "HgN/A
2:20 PM43 °FBroken clouds.9 mph81%30.12 "HgN/A
1:50 PM43 °FScattered clouds.9 mph87%30.12 "HgN/A
1:20 PM43 °FBroken clouds.10 mph81%30.12 "HgN/A
12:50 PM43 °FBroken clouds.8 mph81%30.12 "HgN/A
12:20 PM41 °FBroken clouds.9 mph87%30.12 "HgN/A
11:50 AM41 °FBroken clouds.7 mph87%30.12 "HgN/A
11:20 AM39 °FPartly sunny.8 mph93%30.12 "HgN/A
10:50 AM39 °FPartly sunny.8 mph93%30.12 "HgN/A
10:20 AM37 °FPartly sunny.8 mph93%30.12 "HgN/A
9:50 AM37 °FPartly sunny.7 mph93%30.12 "HgN/A
9:20 AM36 °FPartly sunny.7 mph100%30.12 "HgN/A
8:50 AM36 °FPartly sunny.7 mph93%30.12 "HgN/A
8:20 AM36 °FPartly sunny.8 mph100%30.12 "HgN/A
7:50 AM36 °FPassing clouds.8 mph93%30.09 "HgN/A
7:20 AM36 °FPassing clouds.9 mph93%30.09 "HgN/A
6:50 AM36 °FPassing clouds.9 mph93%30.09 "HgN/A
6:20 AM37 °FPassing clouds.10 mph87%30.09 "HgN/A
5:50 AM36 °FPassing clouds.8 mph93%30.09 "HgN/A
5:20 AM36 °FSprinkles. Passing clouds.10 mph93%30.09 "HgN/A
4:50 AM37 °FPassing clouds.9 mph93%30.09 "HgN/A
4:20 AM37 °FSprinkles. Passing clouds.9 mph93%30.09 "HgN/A
3:50 AM36 °FPassing clouds.10 mph93%30.09 "HgN/A
3:20 AM36 °FPassing clouds.8 mph93%30.09 "HgN/A
2:50 AM37 °FPassing clouds.9 mph87%30.09 "HgN/A
2:20 AM37 °FPassing clouds.9 mph93%30.07 "HgN/A
1:50 AM36 °FPassing clouds.9 mph93%30.07 "HgN/A
1:20 AM37 °FPassing clouds.9 mph93%30.07 "HgN/A
12:50 AM39 °FPassing clouds.10 mph87%30.07 "HgN/A
12:20 AM39 °FPassing clouds.10 mph87%30.07 "HgN/A
11:50 PM
Jan 26
37 °FPassing clouds.12 mph93%30.07 "HgN/A
11:20 PM39 °FPassing clouds.13 mph87%30.07 "HgN/A
10:50 PM39 °FPassing clouds.10 mph93%30.04 "HgN/A
10:20 PM39 °FPassing clouds.10 mph93%30.04 "HgN/A
9:50 PM39 °FPassing clouds.10 mph93%30.04 "HgN/A
9:20 PM39 °FPassing clouds.8 mph87%30.04 "HgN/A
8:50 PM41 °FPassing clouds.12 mph87%30.04 "HgN/A
8:20 PM41 °FPassing clouds.10 mph87%30.01 "HgN/A
7:50 PM41 °FPassing clouds.10 mph93%30.01 "HgN/A
7:20 PM41 °FPassing clouds.10 mph93%30.01 "HgN/A
6:50 PM43 °FPassing clouds.12 mph93%30.01 "HgN/A
6:20 PM43 °FPartly cloudy.8 mph100%29.98 "HgN/A
5:50 PM43 °FPartly cloudy.10 mph100%29.98 "HgN/A
5:20 PM41 °FLight rain. Passing clouds.10 mph100%29.98 "Hg6 mi
4:50 PM41 °FDrizzle. Fog.10 mph100%29.98 "Hg3 mi
4:20 PM41 °FDrizzle. Partly sunny.9 mph100%29.98 "Hg4 mi
Weather by CustomWeather, © 2014

See weather overviewHow to use our weather pages